Flag for Japan Weather past 2 weeks in Sagamihara, Japan

43 °F


Feels Like: 43 °F
Forecast: 39 / 53 °F
Wind: 1 mph from North

Location: Yokota Ab

Current Time: Nov 27, 2015 at 5:05:50 AM

Latest Report: Nov 27, 2015 at 4:02 AM

Visibility: 9 mi

Pressure: 29.70 "Hg

Humidity: 93%

Dew point: 41 °F

Location of SagamiharaLocation

Historic Weather in Sagamihara — Graph


Sagamihara temperature yesterday

Maximum temperature yesterday: 52 °F (at 1:58 PM)
Minimum temperature yesterday: 43 °F (at 1:58 AM)
Average temperature yesterday: 48 °F

Past Weeks' High & Low Weather Summary

High72 °F (Nov 15, 1:58 PM)100% (Nov 14, 5:00 PM)30.55 "Hg (Nov 14, 5:00 PM)
Low43 °F (Nov 26, 1:58 AM)48% (Nov 21, 12:58 PM)29.67 "Hg (Nov 27, 1:02 AM)
Average55 °F82%30.17 "Hg
* Reported Nov 12 4:58 AM — Nov 27 4:02 AM, Sagamihara, Weather by CustomWeather, © 2015

Note: Actual official high and low records may vary slightly from our data, if they occured in-between our weather recording intervals... More about our weather records


Sagamihara weather history for previous 24 hours

Time TempWeatherWind HumidityBarometerVisibility
4:02 AM
Fri, Nov 27
43 °FClear.1 mph93%29.70 "Hg9 mi
2:58 AM45 °FClear.5 mph92%29.70 "Hg10 mi
2:02 AM46 °FFog.2 mph100%29.69 "Hg1 mi
1:58 AM46 °FFog.No wind100%29.71 "Hg1 mi
1:02 AM48 °FFog.6 mph94%29.67 "Hg6 mi
12:00 AM48 °FOvercast.5 mph94%29.69 "Hg10 mi
11:58 PM
Thu, Nov 26
48 °FOvercast.6 mph96%29.71 "Hg10 mi
11:02 PM50 °FMostly cloudy.2 mph94%29.70 "Hg10 mi
10:58 PM50 °FMostly cloudy.5 mph88%29.72 "Hg10 mi
9:58 PM50 °FMostly cloudy.1 mph92%29.73 "Hg10 mi
9:03 PM50 °FOvercast.No wind94%29.72 "Hg10 mi
7:58 PM50 °FLow clouds.1 mph89%29.75 "Hg10 mi
6:58 PM50 °FOvercast.1 mph90%29.75 "Hg10 mi
5:58 PM50 °FOvercast.No wind88%29.77 "Hg10 mi
4:58 PM50 °FOvercast.3 mph87%29.76 "Hg10 mi
3:58 PM50 °FOvercast.5 mph85%29.75 "Hg10 mi
2:58 PM52 °FMore clouds than sun.5 mph83%29.75 "Hg10 mi
1:58 PM52 °FOvercast.8 mph82%29.74 "Hg10 mi
12:58 PM52 °FOvercast.8 mph85%29.75 "Hg10 mi
11:58 AM51 °FOvercast.10 mph87%29.78 "Hg10 mi
10:58 AM50 °FOvercast.7 mph88%29.81 "Hg10 mi
9:58 AM48 °FLight rain. Overcast.6 mph93%29.84 "Hg10 mi
8:58 AM47 °FMostly cloudy.9 mph93%29.87 "Hg10 mi
7:58 AM46 °FLight rain. Overcast.9 mph95%29.88 "Hg10 mi
6:58 AM45 °FLight rain. Overcast.8 mph93%29.89 "Hg8 mi
6:04 AM45 °FLight rain. Mostly cloudy.9 mph93%29.89 "Hg7 mi
5:02 AM45 °FRain. Overcast.9 mph93%29.91 "Hg7 mi
Weather by CustomWeather, © 2015

See weather overviewHow to use our weather pages